Location: Zagreb
(45.8000°N, 16.0000°E)
Time: 15:21:48
(UTC+02:00)

Transit 2A Rocket - Pass Details

Date: 18 August 2022
Orbit: 593 x 907 km, 66.7° (Epoch: 25 September)

Event Time Altitude Azimuth Distance (km) Brightness Sun altitude
Rises 18:06:30 0° 219° (SW) 2,977 8.6 18.5°
Reaches altitude 10° 18:08:52 10° 222° (SW) 2,028 7.9 18.1°
Maximum altitude 18:13:23 67° 305° (NW) 669 5.4 17.3°
Drops below altitude 10° 18:17:42 10° 28° (NNE) 1,944 6.9 16.6°
Sets 18:19:56 0° 32° (NNE) 2,841 7.7 16.2°
